Ashtabula, OH

12:26 AM EST on December 09, 2019 (GMT -0500)
Ashtabula County

Weather History for KHZY - September, 2019

Change the Weather History Date:

Saturday, September 14, 2019

  Actual Average (KGKJ) Record (KGKJ)
Temperature  
Mean Temperature 65 °F -  
Max Temperature 73 °F 76 °F 93 °F (1952)
Min Temperature 57 °F 51 °F 34 °F (1953)
Growing Degree Days 15 (Base 50)    
Moisture  
Dew Point 61 °F    
Average Humidity 88    
Maximum Humidity 100    
Minimum Humidity 53    
Precipitation  
Precipitation 0.23 in - - ()
Sea Level Pressure  
Sea Level Pressure 30.18 in    
Wind  
Wind Speed 7 mph (West)    
Max Wind Speed 14 mph    
Max Gust Speed 22 mph    
Visibility 9 miles    
Events Rain    
Averages and records for this station are not official NWS values.
T = Trace of Precipitation, MM = Missing Value Source: NWS Daily Summary

Daily Weather History Graph

Daily Weather History Graph

Search for Another Location

Airport or City:

Astronomy

Sep. 14, 2019 Rise Set
Actual Time 7:01 AM EDT 7:34 PM EDT
Civil Twilight 6:33 AM EDT 8:02 PM EDT
Nautical Twilight 6:00 AM EDT 8:35 PM EDT
Astronomical Twilight 5:26 AM EDT 9:09 PM EDT
Moon 8:14 PM EDT (9/14) 7:13 AM EDT (9/14)
Length of Visible Light 13h 28m
Length of Day
12h 32m
Full, 100% of the Moon is Illuminated
Sep 14
Full
Sep 21
Last Quarter
Sep 28
New
Oct 5
First Quarter
Oct 13
Full

Hourly Weather History & Observations

Time (EDT) Temp. Dew Point Humidity Pressure Visibility Wind Dir Wind Speed Gust Speed Precip Events Conditions
12:06 AM 66.0 °F 64.9 °F 96% 30.11 in 7.0 mi SE 10.4 mph - 0.02 in Rain Light Rain
12:53 AM 66.0 °F 64.9 °F 96% 30.09 in 10.0 mi South 6.9 mph - 0.09 in   Overcast
1:25 AM 66.9 °F 66.0 °F 97% 30.12 in 10.0 mi South 12.7 mph 21.9 mph 0.01 in   Overcast
1:41 AM 66.9 °F 66.9 °F 100% 30.12 in 5.0 mi South 11.5 mph - 0.04 in Rain Heavy Rain
1:53 AM 66.9 °F 66.9 °F 100% 30.11 in 3.0 mi South 11.5 mph - 0.12 in Rain Heavy Rain
2:19 AM 68.0 °F 66.9 °F 96% 30.12 in 10.0 mi SSE 11.5 mph - 0.00 in   Overcast
2:53 AM 66.9 °F 66.0 °F 97% 30.12 in 9.0 mi West 9.2 mph - 0.02 in Rain Light Rain
3:53 AM 66.9 °F 66.0 °F 97% 30.11 in 9.0 mi WSW 4.6 mph - 0.00 in Rain Light Rain
4:01 AM 66.9 °F 66.9 °F 100% 30.13 in 10.0 mi NW 9.2 mph - 0.00 in Rain Light Rain
4:14 AM 66.9 °F 66.9 °F 100% 30.14 in 10.0 mi WSW 5.8 mph - 0.00 in   Overcast
4:53 AM 66.9 °F 66.9 °F 100% 30.12 in 9.0 mi West 3.5 mph - 0.00 in   Mostly Cloudy
5:22 AM 66.0 °F 64.9 °F 96% 30.15 in 10.0 mi West 6.9 mph - N/A   Mostly Cloudy
5:53 AM 64.9 °F 63.0 °F 93% 30.14 in 10.0 mi WNW 5.8 mph - N/A   Clear
6:53 AM 61.0 °F 61.0 °F 100% 30.16 in 9.0 mi Calm Calm - N/A   Scattered Clouds
7:16 AM 62.1 °F 61.0 °F 96% 30.18 in 10.0 mi Calm Calm - N/A   Mostly Cloudy
7:29 AM 62.1 °F 62.1 °F 100% 30.19 in 10.0 mi Calm Calm - N/A   Mostly Cloudy
7:43 AM 62.1 °F 62.1 °F 100% 30.19 in 10.0 mi Calm Calm - N/A   Mostly Cloudy
7:53 AM 63.0 °F 63.0 °F 100% 30.18 in 10.0 mi Calm Calm - N/A   Mostly Cloudy
8:33 AM 64.0 °F 62.1 °F 93% 30.20 in 10.0 mi West 5.8 mph - N/A   Scattered Clouds
8:53 AM 64.9 °F 62.1 °F 90% 30.19 in 10.0 mi West 6.9 mph - N/A   Clear
9:53 AM 66.0 °F 59.0 °F 78% 30.21 in 10.0 mi West 12.7 mph - N/A   Scattered Clouds
10:30 AM 66.9 °F 57.9 °F 73% 30.23 in 10.0 mi WNW 11.5 mph - N/A   Mostly Cloudy
10:43 AM 68.0 °F 57.9 °F 70% 30.22 in 10.0 mi WNW 10.4 mph - N/A   Scattered Clouds
10:53 AM 68.0 °F 57.9 °F 70% 30.21 in 10.0 mi West 12.7 mph - N/A   Partly Cloudy
11:53 AM 71.1 °F 55.9 °F 59% 30.22 in 10.0 mi West 10.4 mph - N/A   Clear
12:53 PM 72.0 °F 55.9 °F 57% 30.20 in 10.0 mi West 11.5 mph 18.4 mph N/A   Scattered Clouds
1:53 PM 72.0 °F 57.0 °F 59% 30.20 in 10.0 mi WNW 10.4 mph - N/A   Mostly Cloudy
2:53 PM 72.0 °F 54.0 °F 53% 30.19 in 10.0 mi NW 10.4 mph 19.6 mph N/A   Scattered Clouds
3:53 PM 73.0 °F 55.0 °F 53% 30.19 in 10.0 mi WNW 12.7 mph - N/A   Mostly Cloudy
4:53 PM 72.0 °F 55.9 °F 57% 30.18 in 10.0 mi West 13.8 mph - N/A   Clear
5:53 PM 72.0 °F 57.9 °F 61% 30.19 in 10.0 mi WNW 8.1 mph - N/A   Clear
6:53 PM 69.1 °F 59.0 °F 70% 30.19 in 10.0 mi NW 6.9 mph - N/A   Clear
7:53 PM 63.0 °F 60.1 °F 90% 30.20 in 10.0 mi Calm Calm - N/A   Clear
8:53 PM 60.1 °F 59.0 °F 96% 30.20 in 10.0 mi Calm Calm - N/A   Clear
9:25 PM 59.0 °F 57.9 °F 96% 30.22 in 1.8 mi Calm Calm - N/A   Clear
9:53 PM 57.9 °F 57.9 °F 100% 30.22 in 8.0 mi Calm Calm - N/A   Clear
10:24 PM 57.9 °F 57.9 °F 100% 30.22 in 2.0 mi Calm Calm - N/A   Clear
10:32 PM 57.9 °F 57.9 °F 100% 30.22 in 6.0 mi Calm Calm - N/A   Clear
10:41 PM 57.9 °F 57.0 °F 97% 30.22 in 2.0 mi Calm Calm - N/A   Clear
10:50 PM 57.2 °F 57.2 °F 100% 30.22 in 7.0 mi Calm Calm - N/A   Clear
10:53 PM 57.9 °F 57.0 °F 97% 30.22 in 7.0 mi Calm Calm - N/A   Clear
11:53 PM 57.0 °F 57.0 °F 100% 30.22 in 10.0 mi Calm Calm - N/A   Clear